{"data":{"norad_id":67476,"epoch":"2026-05-25T00:59:10.552704Z","epoch_age_seconds":68525,"freshness":"FRESH","line1":"1 67476U 26010A   26145.04109436 -.00000025  00000+0  71201-4 0  9996","line2":"2 67476  44.9806 184.7239 0013060 221.8859 138.0975 13.99159375 18152","mean_motion":13.99159375,"eccentricity":0.001306,"inclination_deg":44.9806,"raan_deg":184.7239,"arg_perigee_deg":221.8859,"mean_anomaly_deg":138.0975,"bstar":7.1201e-5,"rev_number":1815,"period_min":102.9189401672,"perigee_km":887.20658817376,"apogee_km":906.20848209954,"semimajor_km":7274.8445351367,"source":"CELESTRAK","updated_at":"2026-05-25T13:38:07.017812Z"}}